Location: Unspecified
(33.6682°S, 0.0000°E)
Time: 22:21:33
(UTC+00:00)

S-56A Canister/Altair - Visible Passes

Search period start: 25 June 2019 00:00
Search period end: 05 July 2019 00:00
Orbit: 633 x 2499 km, 38.9° (Epoch: 25 June)

Date Brightness Start Highest point End Pass type
(mag) Time Alt. Az. Time Alt. Az. Time Alt. Az.
25 Jun 9.7 03:18:55 48° ESE 03:18:55 48° ESE 03:27:00 10° ESE visible
25 Jun 9.4 05:16:21 33° WSW 05:21:40 67° S 05:35:22 10° E visible
26 Jun 10.3 02:48:04 30° ESE 02:48:04 30° ESE 02:53:14 10° ESE visible
26 Jun 9.1 04:45:30 49° WSW 04:48:21 67° S 05:01:24 10° E visible
27 Jun 10.9 02:17:12 18° ESE 02:17:12 18° ESE 02:19:34 10° ESE visible
27 Jun 8.9 04:14:38 66° SSW 04:15:08 66° S 04:27:26 10° ESE visible
27 Jun 9.7 06:12:03 13° WSW 06:21:42 78° SSE 06:36:15 10° ENE visible
28 Jun 9.3 03:43:44 58° SE 03:43:44 58° SE 03:53:32 10° ESE visible
28 Jun 9.5 05:41:10 23° WSW 05:48:19 75° SSE 06:02:19 10° E visible
29 Jun 9.9 03:12:50 39° ESE 03:12:50 39° ESE 03:19:42 10° ESE visible
29 Jun 9.3 05:10:16 35° WSW 05:15:01 71° SSE 05:28:21 10° E visible
30 Jun 10.5 02:41:56 25° ESE 02:41:56 25° ESE 02:45:57 10° ESE visible
30 Jun 9.0 04:39:22 53° SW 04:41:47 68° S 04:54:23 10° E visible
30 Jun 9.7 06:37:35 10° WSW 06:47:56 77° NNW 07:02:25 10° NE visible
01 Jul 11.0 02:11:02 14° ESE 02:11:02 14° ESE 02:12:19 10° ESE visible
01 Jul 8.9 04:08:28 65° S 04:08:39 65° S 04:20:26 10° E visible
01 Jul 9.5 06:05:53 15° WSW 06:14:37 82° NNW 06:28:42 10° ENE visible
02 Jul 9.4 03:37:34 52° SE 03:37:34 52° SE 03:46:32 10° E visible
02 Jul 9.3 05:35:00 25° WSW 05:41:21 87° NNW 05:54:54 10° ENE visible
03 Jul 10.0 03:06:41 34° ESE 03:06:41 34° ESE 03:12:41 10° E visible
03 Jul 9.1 05:04:07 40° WSW 05:08:10 87° SSE 05:21:04 10° ENE visible
04 Jul 10.6 02:35:49 21° ESE 02:35:49 21° ESE 02:38:56 10° E visible
04 Jul 8.7 04:33:15 63° SW 04:35:03 82° SSE 04:47:13 10° ENE visible
04 Jul 9.9 06:31:11 10° WSW 06:40:35 51° NNW 06:53:43 10° NE visible
